When you browse on this site, cookies collect data to enhance your experience and personalize the content and advertising you see.
Visit our Privacy Policy to learn more. By continuing to use the site, you agree to this use of cookies and data.
  • en France
  • Liste des pays
  • À 7 jours
  • Température de l'eau
  • Carte satellitaire
  • Carte météo
  • Widgets météo
  • user-avatar
    Se connecter

    Météo par heure à Nashavar

    Ce jour, 23 Juillet, Mardi

    Heure Température Précipitation Vent Pression Humidité
    00:00 +38°C° 0 mm 2 m/s 723 mmHg 46%
    01:00 +38°C° 0 mm 2 m/s 723 mmHg 47%
    02:00 +36°C° 0 mm 1 m/s 723 mmHg 48%
    03:00 +36°C° 0 mm 1 m/s 722 mmHg 49%
    04:00 +36°C° 0 mm 1 m/s 722 mmHg 51%
    05:00 +35°C° 0 mm 1 m/s 722 mmHg 52%
    06:00 +36°C° 0 mm 1 m/s 722 mmHg 50%
    07:00 +36°C° 0 mm 1 m/s 723 mmHg 49%
    08:00 +38°C° 0 mm 2 m/s 723 mmHg 47%
    09:00 +39°C° 0 mm 1 m/s 723 mmHg 44%
    10:00 +40°C° 0 mm 1 m/s 723 mmHg 41%
    11:00 +41°C° 0 mm 1 m/s 723 mmHg 38%
    12:00 +42°C° 0 mm 1 m/s 722 mmHg 35%
    13:00 +43°C° 0 mm 1 m/s 722 mmHg 33%
    14:00 +45°C° 0 mm 2 m/s 722 mmHg 30%
    15:00 +45°C° 0 mm 2 m/s 721 mmHg 29%
    16:00 +45°C° 0 mm 2 m/s 720 mmHg 27%
    17:00 +46°C° 0 mm 2 m/s 720 mmHg 26%
    18:00 +45°C° 0 mm 2 m/s 720 mmHg 28%
    19:00 +43°C° 0 mm 2 m/s 720 mmHg 30%
    20:00 +43°C° 0 mm 3 m/s 720 mmHg 33%
    21:00 +41°C° 0 mm 2 m/s 720 mmHg 34%
    22:00 +41°C° 0 mm 2 m/s 720 mmHg 36%
    23:00 +40°C° 0 mm 2 m/s 720 mmHg 38%

    Demain, 24 Juillet, Mercredi

    Heure Température Précipitation Vent Pression Humidité
    00:00 +40°C° 0 mm 2 m/s 720 mmHg 39%
    01:00 +39°C° 0 mm 2 m/s 720 mmHg 41%
    02:00 +38°C° 0 mm 2 m/s 720 mmHg 42%
    03:00 +38°C° 0 mm 2 m/s 720 mmHg 44%
    04:00 +37°C° 0 mm 2 m/s 720 mmHg 46%
    05:00 +37°C° 0 mm 2 m/s 720 mmHg 47%
    06:00 +38°C° 0 mm 2 m/s 720 mmHg 46%
    07:00 +38°C° 0 mm 2 m/s 720 mmHg 44%
    08:00 +39°C° 0 mm 2 m/s 721 mmHg 42%
    09:00 +40°C° 0 mm 2 m/s 721 mmHg 39%
    10:00 +41°C° 0 mm 1 m/s 721 mmHg 36%
    11:00 +42°C° 0 mm 1 m/s 721 mmHg 33%
    12:00 +43°C° 0 mm 1 m/s 720 mmHg 31%
    13:00 +44°C° 0 mm 1 m/s 720 mmHg 28%
    14:00 +45°C° 0 mm 1 m/s 719 mmHg 26%
    15:00 +46°C° 0 mm 2 m/s 719 mmHg 25%
    16:00 +47°C° 0 mm 2 m/s 718 mmHg 24%
    17:00 +47°C° 0 mm 2 m/s 718 mmHg 22%
    18:00 +46°C° 0 mm 3 m/s 718 mmHg 25%
    19:00 +45°C° 0 mm 3 m/s 718 mmHg 27%
    20:00 +44°C° 0 mm 4 m/s 718 mmHg 30%
    21:00 +43°C° 0 mm 3 m/s 719 mmHg 31%
    22:00 +42°C° 0 mm 2 m/s 719 mmHg 33%
    23:00 +41°C° 0 mm 2 m/s 719 mmHg 35%

    Après-demain, 25 Juillet, Jeudi

    Heure Température Précipitation Vent Pression Humidité
    00:00 +41°C° 0 mm 2 m/s 719 mmHg 36%
    01:00 +40°C° 0 mm 2 m/s 719 mmHg 38%
    02:00 +39°C° 0 mm 2 m/s 719 mmHg 39%
    03:00 +39°C° 0 mm 2 m/s 719 mmHg 40%
    04:00 +38°C° 0 mm 2 m/s 719 mmHg 42%
    05:00 +38°C° 0 mm 2 m/s 719 mmHg 44%
    06:00 +39°C° 0 mm 2 m/s 719 mmHg 42%
    07:00 +39°C° 0 mm 2 m/s 719 mmHg 40%
    08:00 +40°C° 0 mm 2 m/s 720 mmHg 39%
    09:00 +41°C° 0 mm 2 m/s 720 mmHg 36%
    10:00 +42°C° 0 mm 2 m/s 720 mmHg 34%
    11:00 +43°C° 0 mm 2 m/s 720 mmHg 32%
    12:00 +45°C° 0 mm 2 m/s 719 mmHg 30%
    13:00 +46°C° 0 mm 2 m/s 719 mmHg 27%
    14:00 +46°C° 0 mm 1 m/s 718 mmHg 25%
    15:00 +46°C° 0 mm 1 m/s 718 mmHg 24%
    16:00 +47°C° 0 mm 2 m/s 718 mmHg 23%
    17:00 +48°C° 0 mm 2 m/s 717 mmHg 23%
    18:00 +47°C° 0.1 mm 2 m/s 717 mmHg 24%
    19:00 +46°C° 0.1 mm 2 m/s 718 mmHg 26%
    20:00 +45°C° 0.1 mm 2 m/s 718 mmHg 28%
    21:00 +44°C° 0.1 mm 3 m/s 718 mmHg 32%
    22:00 +43°C° 0.1 mm 4 m/s 719 mmHg 36%
    23:00 +41°C° 0.1 mm 5 m/s 719 mmHg 40%

    26 Juillet, Vendredi

    Heure Température Précipitation Vent Pression Humidité
    00:00 +39°C° 1.4 mm 5 m/s 719 mmHg 49%
    01:00 +35°C° 1.4 mm 5 m/s 719 mmHg 59%
    02:00 +33°C° 1.4 mm 5 m/s 719 mmHg 69%
    03:00 +32°C° 1.5 mm 4 m/s 719 mmHg 71%
    04:00 +31°C° 1.5 mm 3 m/s 720 mmHg 74%
    05:00 +30°C° 1.5 mm 3 m/s 720 mmHg 76%
    06:00 +30°C° 1.8 mm 3 m/s 721 mmHg 79%
    07:00 +30°C° 1.8 mm 3 m/s 721 mmHg 81%
    08:00 +29°C° 1.8 mm 3 m/s 722 mmHg 83%
    09:00 +30°C° 1.2 mm 3 m/s 722 mmHg 80%
    10:00 +30°C° 1.2 mm 3 m/s 722 mmHg 77%
    11:00 +31°C° 1.2 mm 3 m/s 722 mmHg 73%
    12:00 +31°C° 0.3 mm 3 m/s 722 mmHg 72%
    13:00 +31°C° 0.3 mm 3 m/s 722 mmHg 70%
    14:00 +31°C° 0.3 mm 3 m/s 722 mmHg 69%
    15:00 +33°C° 0 mm 3 m/s 721 mmHg 68%
    16:00 +33°C° 0 mm 3 m/s 721 mmHg 67%
    17:00 +33°C° 0 mm 3 m/s 721 mmHg 66%
    18:00 +32°C° 0 mm 2 m/s 721 mmHg 67%
    19:00 +32°C° 0 mm 2 m/s 721 mmHg 68%
    20:00 +31°C° 0 mm 2 m/s 722 mmHg 70%
    21:00 +31°C° 0.5 mm 2 m/s 722 mmHg 71%
    22:00 +31°C° 0.5 mm 2 m/s 722 mmHg 72%
    23:00 +30°C° 0.5 mm 2 m/s 722 mmHg 74%

    27 Juillet, Samedi

    Heure Température Précipitation Vent Pression Humidité
    00:00 +30°C° 0 mm 1 m/s 722 mmHg 75%
    01:00 +30°C° 0 mm 1 m/s 722 mmHg 76%
    02:00 +29°C° 0 mm 1 m/s 722 mmHg 77%
    03:00 +29°C° 0.3 mm 1 m/s 722 mmHg 77%
    04:00 +29°C° 0.3 mm 1 m/s 722 mmHg 77%
    05:00 +29°C° 0.3 mm 1 m/s 721 mmHg 78%
    06:00 +30°C° 0 mm 1 m/s 722 mmHg 75%
    07:00 +28°C° 0 mm 0 m/s 722 mmHg 72%
    08:00 +29°C° 0 mm 0 m/s 722 mmHg 69%
    09:00 +32°C° 0 mm 1 m/s 722 mmHg 64%
    10:00 +34°C° 0 mm 1 m/s 722 mmHg 58%
    11:00 +35°C° 0 mm 1 m/s 722 mmHg 52%
    12:00 +36°C° 0 mm 1 m/s 721 mmHg 49%
    13:00 +38°C° 0 mm 2 m/s 721 mmHg 46%
    14:00 +39°C° 0 mm 2 m/s 721 mmHg 43%
    15:00 +39°C° 0 mm 3 m/s 720 mmHg 42%
    16:00 +39°C° 0 mm 3 m/s 720 mmHg 41%
    17:00 +41°C° 0 mm 4 m/s 720 mmHg 40%
    18:00 +39°C° 0 mm 3 m/s 720 mmHg 43%
    19:00 +38°C° 0 mm 3 m/s 720 mmHg 46%
    20:00 +37°C° 0 mm 3 m/s 720 mmHg 49%
    21:00 +37°C° 0.1 mm 3 m/s 721 mmHg 51%
    22:00 +36°C° 0.1 mm 2 m/s 721 mmHg 53%
    23:00 +36°C° 0.1 mm 2 m/s 722 mmHg 55%

    28 Juillet, Dimanche

    Heure Température Précipitation Vent Pression Humidité
    00:00 +35°C° 0.8 mm 2 m/s 721 mmHg 60%
    01:00 +34°C° 0.8 mm 2 m/s 721 mmHg 64%
    02:00 +32°C° 0.8 mm 2 m/s 721 mmHg 68%
    03:00 +32°C° 1.4 mm 2 m/s 721 mmHg 70%
    04:00 +32°C° 1.4 mm 2 m/s 721 mmHg 71%
    05:00 +31°C° 1.4 mm 1 m/s 721 mmHg 73%
    06:00 +32°C° 0.3 mm 1 m/s 721 mmHg 70%
    07:00 +33°C° 0.3 mm 1 m/s 721 mmHg 67%
    08:00 +33°C° 0.3 mm 1 m/s 721 mmHg 64%
    09:00 +34°C° 0.2 mm 1 m/s 722 mmHg 59%
    10:00 +36°C° 0.2 mm 1 m/s 722 mmHg 54%
    11:00 +37°C° 0.2 mm 1 m/s 722 mmHg 49%
    12:00 +39°C° 0 mm 2 m/s 722 mmHg 46%
    13:00 +40°C° 0 mm 2 m/s 721 mmHg 42%
    14:00 +40°C° 0 mm 3 m/s 721 mmHg 39%
    15:00 +40°C° 0 mm 3 m/s 721 mmHg 39%
    16:00 +41°C° 0 mm 4 m/s 721 mmHg 40%
    17:00 +42°C° 0 mm 5 m/s 720 mmHg 40%
    18:00 +41°C° 0 mm 5 m/s 721 mmHg 44%
    19:00 +40°C° 0 mm 5 m/s 721 mmHg 47%
    20:00 +38°C° 0 mm 4 m/s 721 mmHg 50%
    21:00 +37°C° 0.3 mm 4 m/s 721 mmHg 54%
    22:00 +36°C° 0.3 mm 3 m/s 722 mmHg 57%
    23:00 +35°C° 0.3 mm 2 m/s 722 mmHg 61%
    Voir plus